Theta_e
313 313 316 320 324 327 330 334 334 334 332 331 330 330 331 331 331 331 327 325 328 330 329 329 328 327 326 326 325 324 323 324 325 325 324 323 322 321 321 321 323 325 326 327 329 330 331 332 332 332 334 333 331 329 329 328 327 326 326 328 327 325 324 325 325 324 323 321 321 322 322 327 331 332 335 336 338 339 337 335 334 334 335 335 334
314 313 313 316 321 324 325 329 331 332 331 331 330 329 329 328 329 329 327 326 328 329 329 330 329 329 329 329 329 328 326 326 326 326 327 326 325 324 323 322 324 327 328 329 331 331 331 332 333 333 335 334 332 332 331 329 327 326 326 327 328 327 326 326 326 326 326 324 321 320 321 328 334 334 333 332 333 336 337 336 335 335 336 336 335
315 314 313 314 317 320 322 325 326 327 327 328 328 329 329 329 329 329 328 327 329 330 330 331 330 330 330 331 330 329 329 329 329 327 328 328 326 326 325 324 324 326 329 331 331 331 332 334 334 334 335 333 332 333 331 329 328 327 328 327 328 328 328 327 327 327 327 326 323 321 320 324 333 337 335 333 332 331 332 336 336 336 337 337 336
316 314 313 314 314 316 319 321 323 325 326 326 326 327 329 330 329 329 328 328 329 330 331 332 332 332 331 332 332 331 331 331 331 329 329 329 328 327 328 327 325 326 330 332 331 333 333 334 334 334 334 334 331 330 329 329 328 328 329 328 328 329 329 328 328 328 327 327 326 323 321 320 327 335 337 336 335 332 327 327 331 334 336 337 336
317 315 314 314 313 314 317 320 322 323 325 326 327 326 328 330 328 328 327 328 329 330 331 332 332 333 332 333 333 333 332 332 332 330 330 330 329 328 328 328 328 328 330 332 333 333 334 333 335 334 334 334 332 330 328 327 327 327 329 329 329 329 330 329 328 328 328 327 327 326 324 321 321 329 336 337 336 335 330 326 326 326 329 335 336
319 315 315 314 314 314 316 319 319 320 323 325 326 325 326 327 326 326 327 328 330 331 331 332 332 333 333 333 334 333 332 331 331 330 329 328 327 327 327 327 329 328 327 331 333 333 333 333 334 334 334 335 332 329 326 325 325 325 326 327 327 328 329 330 329 329 328 328 328 328 327 325 322 322 330 335 335 334 333 331 328 324 321 326 330
319 316 315 314 314 315 316 317 318 319 322 324 324 324 325 326 326 327 328 329 330 332 332 332 332 332 332 332 332 331 330 329 328 328 327 326 326 326 327 327 327 326 325 326 330 332 331 331 333 333 333 331 328 326 325 325 325 326 326 326 326 326 327 329 329 329 328 328 328 328 328 328 327 323 325 331 333 332 333 333 331 328 323 322 324
320 318 315 314 314 315 317 318 318 321 321 322 323 323 323 324 327 329 330 330 331 333 332 331 331 331 331 331 329 327 326 326 326 326 326 325 326 326 326 326 325 323 322 320 322 326 326 326 329 329 327 325 324 324 324 324 325 326 326 326 326 326 326 327 328 329 328 328 328 328 329 329 329 327 326 329 331 330 331 333 332 329 326 324 323
319 318 316 315 314 316 318 319 320 321 320 320 322 322 322 325 328 330 330 329 329 330 329 329 329 329 328 327 324 322 322 321 322 321 320 319 319 320 319 319 318 316 315 315 315 316 318 319 319 319 318 318 318 318 318 318 318 318 318 319 319 320 321 322 324 326 328 329 329 329 329 329 330 330 328 328 330 330 331 332 331 329 327 325 323
319 318 316 315 315 317 318 318 319 318 317 318 321 323 325 327 328 327 325 325 324 323 323 324 324 324 322 320 319 318 317 315 315 314 313 313 313 313 313 312 312 312 311 312 311 312 313 312 312 312 312 312 312 312 312 312 312 312 312 312 312 313 313 314 316 318 322 324 327 328 329 329 329 330 329 328 329 331 331 331 331 329 328 325 323
319 318 316 315 315 317 317 317 316 314 314 316 319 323 327 327 325 321 317 318 318 316 316 317 317 317 316 315 315 314 313 312 312 312 312 311 311 310 310 310 309 309 309 309 309 309 310 310 310 310 310 310 310 309 309 309 308 308 308 308 308 309 309 310 311 312 314 316 318 321 323 325 326 328 328 329 330 331 331 330 331 331 331 328 326
319 318 317 316 315 316 317 316 314 312 312 313 315 318 323 323 321 316 313 313 313 313 312 313 313 313 313 312 312 312 312 311 311 310 310 309 308 307 306 306 306 306 306 306 306 305 306 306 306 306 306 306 306 305 305 305 305 305 304 305 305 305 306 306 307 308 309 310 311 313 315 317 320 323 325 327 329 330 331 330 330 332 333 330 328
319 317 317 316 315 316 316 316 314 312 312 312 313 314 316 317 316 313 312 312 312 313 312 312 312 312 312 311 311 311 310 310 309 308 307 306 305 304 304 304 304 304 304 304 304 304 304 304 304 304 304 304 304 304 304 304 304 304 304 304 304 304 304 304 304 305 305 306 307 309 310 312 314 318 322 324 326 328 329 328 329 330 330 330 329
318 318 317 316 315 315 315 315 314 312 312 312 313 313 313 313 313 312 312 312 312 312 312 311 311 311 310 310 309 309 308 307 306 305 304 304 304 304 304 304 304 304 304 304 304 304 304 303 303 303 303 303 303 303 303 304 304 304 304 304 304 304 304 304 304 304 304 304 304 305 306 308 310 314 318 320 323 324 324 324 326 328 328 328 329
318 318 317 317 315 314 314 314 313 313 313 313 313 313 313 312 312 312 311 310 310 310 310 310 309 309 309 308 307 306 305 304 304 304 304 304 304 304 304 304 304 304 304 304 304 304 303 303 303 303 303 303 303 303 304 304 304 304 304 304 304 304 304 304 304 304 304 304 304 304 304 305 306 309 313 316 318 319 320 321 322 324 325 326 327
318 318 317 317 316 315 314 314 313 313 313 313 313 313 312 311 311 310 310 309 309 309 309 309 308 308 307 306 305 304 304 304 304 304 304 304 304 304 304 304 304 304 304 304 304 303 303 303 303 303 303 303 303 303 303 303 304 304 304 304 304 304 304 304 304 304 304 304 304 304 303 303 304 305 308 311 313 314 316 319 320 321 321 322 325
317 318 318 317 316 315 314 314 313 313 313 313 313 312 311 311 310 309 309 309 309 309 308 308 308 306 305 304 304 304 304 304 305 305 305 305 305 305 304 304 304 304 304 304 304 304 304 303 304 303 303 303 303 303 304 304 304 304 304 304 304 304 304 304 304 304 304 304 304 304 304 303 303 303 304 306 308 309 310 313 315 317 318 318 319
317 317 317 317 316 315 314 314 314 313 313 313 313 312 311 310 310 309 309 309 309 308 308 307 306 305 304 304 304 305 305 305 305 305 305 305 305 305 305 305 305 305 304 304 304 304 304 304 304 304 304 304 304 304 304 304 304 304 304 305 304 304 304 304 304 304 304 304 304 304 304 303 303 303 303 304 305 306 306 307 309 311 314 315 317
316 316 317 317 317 316 315 314 313 313 313 313 313 312 312 311 310 309 309 309 308 308 308 307 305 304 304 304 305 305 305 305 305 305 305 305 305 305 305 305 305 305 305 305 304 304 304 304 304 305 305 305 305 305 305 305 305 305 305 305 305 304 304 304 304 304 304 303 303 303 303 303 303 303 303 303 303 303 304 304 305 306 308 311 314
315 316 316 316 317 317 316 315 314 313 313 313 313 313 312 311 310 309 309 308 308 308 307 305 304 304 304 305 305 305 305 305 305 305 305 305 305 305 305 305 305 305 305 305 305 305 305 305 305 305 305 305 305 305 305 305 305 305 305 304 304 304 304 304 304 304 303 303 303 303 303 303 303 303 303 303 303 302 302 302 302 303 303 304 306
315 315 315 315 316 317 316 316 315 313 313 313 313 313 312 311 310 309 309 308 308 307 306 305 304 304 304 305 305 305 305 305 305 305 305 305 305 305 305 305 305 305 305 305 305 305 305 305 305 305 304 304 304 304 304 304 304 304 304 304 304 304 304 304 304 303 303 303 303 302 302 302 302 303 303 302 303 302 302 302 302 302 302 302 302
316 315 315 315 315 316 316 316 315 314 313 313 313 312 312 311 310 309 309 308 308 307 306 304 304 304 304 304 305 305 305 305 305 305 305 305 305 305 305 305 305 305 305 305 305 305 305 305 304 304 304 304 304 304 304 304 304 304 304 304 304 304 304 304 303 303 303 303 302 302 302 302 302 302 302 302 302 302 302 302 302 302 302 302 302
316 316 315 315 315 315 315 315 315 315 314 313 312 312 312 311 311 310 309 308 308 308 306 304 304 304 304 304 304 305 305 305 305 305 305 305 305 305 305 305 305 305 305 305 305 305 305 304 304 304 304 304 304 304 303 303 303 303 303 303 304 304 304 304 303 303 303 302 302 302 302 302 302 301 302 302 302 302 302 302 302 302 302 302 302
316 317 316 315 315 315 315 315 315 315 314 313 312 312 312 311 311 310 309 308 308 308 306 304 303 303 304 304 304 305 305 305 305 305 305 305 305 305 305 305 304 305 304 305 304 304 304 304 304 304 303 303 303 303 303 303 303 303 303 303 303 303 304 304 304 304 303 303 302 302 301 301 301 301 301 301 301 302 302 302 302 302 302 302 302
317 316 317 316 315 314 314 315 315 315 314 314 313 312 312 311 311 310 309 309 308 308 307 304 303 303 303 304 304 304 305 305 305 305 305 305 305 304 304 304 304 304 304 304 304 304 304 304 303 303 303 303 303 303 303 303 303 303 303 303 303 303 304 304 304 304 304 303 302 301 301 301 301 301 301 301 301 301 301 301 301 302 302 302 302
316 317 316 316 316 315 314 314 314 315 315 314 313 312 312 311 311 310 309 309 308 308 307 305 303 303 303 304 304 304 304 305 305 305 305 305 305 304 304 304 304 304 304 304 304 304 304 304 303 303 303 303 303 303 303 302 303 303 303 303 303 303 304 304 304 304 304 303 302 302 301 301 300 300 300 300 301 301 301 301 301 301 301 301 301
316 316 316 316 316 315 315 314 314 314 315 315 314 313 312 311 311 310 309 309 309 308 308 306 304 303 303 304 304 304 304 304 305 305 305 305 305 304 304 304 304 304 304 304 304 304 304 304 304 303 303 303 302 302 302 302 302 302 302 302 303 303 303 304 304 304 304 303 302 302 301 300 300 300 300 300 300 300 300 300 300 300 300 300 300
316 316 316 316 316 316 316 315 314 314 314 315 314 314 312 311 311 310 310 309 309 308 308 307 304 303 303 304 303 304 304 304 304 304 304 305 305 304 304 303 303 303 304 304 304 304 304 304 304 303 303 303 302 302 302 302 302 302 302 302 302 303 303 303 304 304 303 303 302 301 300 300 300 299 299 299 299 300 300 300 300 300 300 300 300
316 316 316 316 316 316 316 315 315 314 314 315 314 314 313 312 311 310 310 309 309 308 308 307 305 304 303 303 303 303 303 303 303 304 304 304 304 304 303 303 303 303 303 303 304 304 304 304 304 304 303 303 302 302 302 302 302 302 302 302 302 302 302 303 303 303 303 303 302 301 300 300 299 299 299 299 299 299 299 299 299 299 299 299 299
315 315 315 315 316 315 316 315 315 315 314 314 314 314 314 313 312 311 310 309 309 308 308 308 307 305 303 303 303 303 303 303 303 303 303 303 303 303 303 303 302 303 303 303 304 304 304 304 304 304 303 303 302 302 302 302 302 302 302 302 302 302 302 302 303 303 303 303 302 301 300 299 299 299 299 298 298 298 298 299 299 299 299 299 299
315 315 315 315 315 315 315 315 315 315 315 314 314 314 314 314 313 312 311 310 309 308 308 308 307 306 304 302 302 302 302 302 302 302 302 303 303 303 303 303 303 303 303 303 303 304 304 304 304 303 303 302 302 302 302 302 302 302 302 301 301 302 302 302 302 303 303 302 302 301 300 299 299 299 299 298 298 298 298 298 298 298 298 298 299
315 315 315 315 315 315 315 315 315 315 315 315 314 314 314 314 313 312 311 310 309 309 308 308 308 307 305 303 302 302 302 302 302 302 302 302 302 303 302 302 302 302 303 302 303 303 303 303 303 303 302 302 302 302 302 301 301 302 301 301 301 301 301 302 302 302 302 302 302 301 300 299 298 298 298 298 298 297 297 297 297 297 297 298 298
315 315 315 314 314 314 315 315 315 315 315 315 314 314 314 314 314 313 312 311 310 309 308 308 308 307 306 304 302 301 302 302 302 301 301 302 302 302 302 302 302 302 302 302 302 302 303 303 303 302 302 302 302 302 302 301 301 301 301 301 301 301 301 301 302 302 302 302 301 301 300 299 298 298 298 297 297 297 297 297 297 297 297 297 297
316 315 314 315 315 314 315 315 315 315 315 315 314 314 314 314 314 313 313 312 310 309 309 308 308 307 307 305 303 302 301 301 301 301 301 301 301 301 301 301 301 301 301 301 302 302 302 302 302 302 302 302 302 301 301 301 301 301 301 301 301 301 301 301 301 302 302 302 301 301 299 298 298 297 297 297 297 296 296 296 297 297 296 296 296
316 315 315 315 315 314 314 314 314 315 315 315 315 314 314 314 313 313 313 312 311 310 309 308 308 307 307 306 305 303 301 301 301 301 301 301 301 301 301 301 301 301 301 301 301 302 302 302 302 302 302 302 302 301 301 301 301 301 301 301 300 300 300 301 301 301 302 302 301 300 299 298 297 297 297 297 296 296 296 296 296 296 296 296 296
316 316 316 315 314 314 314 314 314 314 314 315 315 314 314 314 313 313 313 313 312 310 309 308 308 307 307 306 306 304 302 301 301 301 301 301 301 301 301 301 300 300 300 301 301 301 301 302 302 302 302 302 301 301 301 301 301 301 301 300 300 300 300 300 301 301 301 301 301 300 299 297 297 297 296 296 296 296 296 296 296 296 296 296 296
317 316 316 315 315 315 314 314 314 314 314 314 314 314 314 314 313 313 313 313 312 311 310 309 308 307 307 306 306 305 303 301 300 300 300 300 300 301 300 300 300 300 300 300 300 301 301 301 301 301 301 301 301 301 301 301 300 300 300 300 300 300 300 300 301 301 301 301 300 299 298 297 297 296 296 296 296 296 296 296 296 296 296 296 296
316 316 316 315 316 315 314 314 314 314 314 314 314 314 314 314 313 313 313 312 312 312 310 309 308 307 307 306 306 306 304 302 300 300 300 300 300 300 300 300 300 299 300 300 300 300 301 301 301 301 301 301 300 300 300 300 300 300 300 300 300 300 300 300 300 300 300 299 299 298 297 296 296 296 296 296 296 296 296 296 296 296 296 296 296
316 315 315 315 315 315 314 314 314 314 314 314 314 313 313 313 313 313 312 312 312 311 310 309 308 307 307 306 306 306 305 303 301 300 300 300 300 300 299 299 299 299 299 299 300 300 300 300 301 301 301 301 300 300 300 300 300 300 300 300 300 300 299 300 300 300 299 298 297 297 296 296 295 295 295 295 295 295 295 295 296 296 296 296 296
314 314 314 314 314 315 314 315 314 314 313 313 313 313 313 313 313 312 312 312 312 311 310 309 308 307 307 307 306 306 305 305 302 300 299 300 300 299 299 299 299 299 299 299 299 300 300 300 300 300 300 300 300 300 300 299 299 299 300 300 300 299 299 299 299 299 298 297 296 296 295 295 295 295 295 295 295 295 295 295 295 295 295 295 296
314 313 314 314 314 315 315 315 314 314 313 313 313 313 314 313 313 313 313 312 312 311 311 310 309 308 307 307 306 306 305 305 304 301 300 299 299 299 299 299 298 298 298 299 299 299 299 300 300 300 300 300 300 300 299 299 299 299 299 299 299 299 299 299 299 299 298 297 296 295 295 294 294 294 294 295 295 295 295 295 295 295 295 295 295
314 314 314 314 314 314 314 314 314 314 314 313 313 313 314 314 314 313 313 313 312 312 311 311 310 308 308 307 306 305 305 305 304 303 300 299 299 299 299 298 298 298 298 298 298 298 299 299 299 299 300 300 299 299 299 299 299 299 299 299 299 298 298 298 298 298 297 297 296 296 295 294 294 294 294 294 294 294 294 294 294 294 295 295 295
314 314 314 314 314 314 314 314 314 314 314 313 313 313 313 313 313 313 313 312 312 312 311 311 310 309 308 307 306 305 304 304 304 303 301 299 299 299 299 298 298 298 298 298 298 298 298 299 299 299 300 299 299 299 299 299 299 299 299 298 298 298 298 298 298 298 297 297 296 296 296 295 294 294 294 294 294 294 294 294 294 295 295 295 295
314 314 314 313 314 314 314 313 313 313 313 313 313 313 312 312 311 311 311 311 311 311 310 310 309 308 308 307 306 305 304 304 303 304 303 300 299 299 298 298 298 298 298 298 298 298 298 299 299 299 299 299 299 299 299 299 298 298 298 298 298 297 298 298 298 297 296 297 297 296 296 296 294 294 294 294 294 294 294 294 294 295 295 295 295
314 314 314 314 314 313 313 313 312 313 313 313 313 312 311 311 310 310 310 309 309 309 309 309 309 308 308 308 306 305 305 304 304 303 303 302 300 299 298 298 298 298 298 298 298 298 298 298 299 299 299 299 299 299 298 298 298 298 298 298 298 298 297 297 297 296 297 297 297 296 296 295 294 294 294 294 294 294 294 294 294 294 294 294 294
314 314 314 314 313 313 313 312 312 312 312 312 312 311 311 311 311 310 310 310 310 310 310 310 310 309 309 308 307 306 306 305 304 303 303 302 300 299 298 298 298 298 297 297 297 297 298 298 298 298 299 299 299 299 298 298 298 298 298 298 299 298 298 297 297 296 297 297 296 296 295 295 294 294 293 293 293 294 294 293 294 294 294 294 293
314 313 313 314 313 313 313 312 312 312 311 311 311 311 311 310 311 310 311 311 311 311 311 311 310 310 309 309 308 307 306 305 304 303 303 302 301 299 299 298 298 298 297 297 297 297 297 297 298 298 298 298 298 298 298 298 298 298 298 298 298 298 298 297 297 296 296 296 296 296 295 295 294 293 293 293 293 293 293 293 293 293 293 293 293
313 313 313 313 313 313 313 312 312 312 311 311 311 311 311 311 310 310 310 311 311 311 311 311 310 310 309 308 308 307 307 306 305 304 303 302 301 300 299 298 298 297 297 297 297 297 297 297 297 297 298 298 298 298 298 298 298 297 297 297 298 298 298 297 297 297 296 296 296 295 295 294 294 293 293 293 293 293 293 293 293 293 292 292 292
313 314 313 313 313 312 312 312 312 312 311 311 310 310 310 310 310 310 310 310 310 310 309 309 309 309 309 308 308 307 307 306 305 304 303 302 301 300 300 299 298 298 297 297 296 296 296 296 297 297 297 298 298 298 298 298 298 297 297 297 297 297 297 297 297 297 296 295 295 295 294 294 294 293 293 293 293 293 293 293 293 292 292 292 292
312 314 313 314 314 312 313 312 312 312 311 311 310 310 310 310 310 309 309 309 309 309 308 308 308 308 308 308 308 307 307 306 306 305 304 302 302 301 300 299 299 298 297 296 296 296 296 296 296 297 297 297 297 297 298 297 297 297 297 297 297 297 297 297 297 297 297 296 295 295 294 293 293 293 293 293 293 293 293 293 292 292 292 292 292
312 313 313 313 313 313 313 312 312 312 311 311 311 311 310 310 310 310 309 309 309 309 308 308 308 308 308 308 308 308 307 307 306 305 304 303 302 301 300 300 299 299 298 297 296 296 296 295 296 296 296 297 297 297 297 297 297 297 297 297 297 297 297 297 297 297 297 297 296 295 294 292 293 293 293 293 293 293 293 292 292 292 292 292 292
Wind_Speed
20 20 20 19 19 18 18 18 17 15 14 13 13 13 13 12 12 12 11 10 9 8 7 7 7 6 6 6 5 6 6 6 6 6 6 6 6 5 5 4 4 4 4 3 3 2 2 2 1 1 3 2 2 3 3 3 3 3 5 6 6 6 6 6 7 8 8 8 9 9 9 8 9 7 5 4 6 7 7 7 7 7 6 5 3
16 19 20 20 21 20 19 18 18 16 14 14 14 13 13 12 12 11 10 9 9 9 8 8 7 7 7 6 6 6 7 7 7 7 7 7 6 6 6 5 5 5 4 4 3 3 2 3 3 2 2 2 1 1 2 1 2 2 4 5 5 5 5 5 6 6 7 7 7 8 9 7 7 7 5 5 6 6 6 7 7 7 6 5 4
15 18 20 20 20 20 19 18 17 16 15 15 14 14 13 12 12 11 10 9 9 9 8 8 7 6 6 6 6 6 7 7 8 8 8 8 7 6 6 6 6 5 4 4 4 4 4 5 4 5 5 4 3 2 1 1 2 3 3 3 3 3 4 4 5 5 5 6 6 7 7 6 6 6 6 4 5 6 5 5 6 6 5 5 4
15 18 19 20 20 20 20 18 16 15 15 15 13 13 14 13 13 12 11 10 10 9 9 9 8 8 8 8 8 8 8 8 8 9 9 9 8 7 6 6 5 5 5 4 5 5 6 7 6 7 7 5 5 3 2 2 3 3 3 2 2 1 2 3 4 4 4 4 4 4 5 5 4 4 5 4 5 6 5 4 3 4 4 4 4
14 17 19 19 20 20 20 20 17 16 15 15 14 13 14 14 13 13 13 12 11 10 11 11 10 10 10 10 10 10 10 10 9 9 10 10 8 7 6 5 5 5 6 6 6 8 8 8 7 8 7 6 5 3 3 4 4 5 4 3 3 3 3 3 3 4 4 4 3 3 3 3 2 2 4 4 5 5 4 4 4 3 3 3 3
14 17 18 18 19 20 20 20 19 17 17 16 15 14 15 14 14 14 14 14 13 12 12 12 12 12 12 12 12 12 12 12 11 11 11 11 9 9 8 7 6 6 7 7 8 9 8 7 8 8 7 6 6 6 7 7 7 7 6 5 5 5 5 5 5 5 5 5 4 3 2 2 1 1 3 4 4 5 5 4 5 4 3 3 2
13 16 17 17 18 19 19 20 20 18 17 17 16 16 16 16 15 15 15 15 15 14 14 14 14 15 15 15 15 14 14 13 13 13 12 12 11 10 10 9 9 8 8 9 8 8 8 7 8 8 6 7 9 10 10 10 9 9 8 8 8 7 7 7 7 7 7 6 6 4 3 3 2 2 1 2 3 4 5 4 4 5 4 3 3
14 16 17 17 18 18 19 19 19 18 18 17 16 17 17 17 17 16 16 16 16 16 16 17 17 17 17 17 17 16 16 15 15 14 13 12 12 11 11 11 11 11 10 10 10 9 9 9 9 9 11 13 14 13 13 12 12 12 12 11 10 10 10 9 9 9 8 8 7 6 5 4 4 3 2 2 3 4 5 5 6 5 5 4 4
14 16 17 18 18 18 18 19 19 19 18 17 17 18 18 18 18 17 17 17 17 17 17 18 18 18 18 18 18 18 17 16 15 14 13 12 12 12 12 12 12 12 11 11 11 11 11 12 13 13 15 15 15 14 14 14 14 14 14 14 13 13 13 12 12 11 10 10 9 8 8 7 6 5 5 4 4 5 5 6 7 6 6 6 6
14 16 18 20 20 19 19 19 19 19 18 18 18 18 19 19 19 18 18 18 18 18 18 18 19 19 19 19 18 17 16 14 14 13 13 12 12 11 11 11 11 11 10 10 11 11 11 12 13 13 14 13 13 14 14 14 14 14 14 14 14 14 14 13 13 13 13 12 11 11 10 9 9 8 7 7 5 5 7 8 8 7 7 7 7
15 17 19 21 21 21 20 20 18 18 18 18 19 19 20 20 20 19 19 19 18 18 18 18 18 18 18 17 17 16 15 14 13 12 12 11 11 10 10 10 10 10 10 10 9 9 10 11 11 11 12 12 12 12 12 12 12 12 12 13 13 13 13 13 13 13 13 13 13 13 13 12 11 11 10 9 7 7 8 9 8 8 8 8 9
16 17 19 21 22 22 21 20 19 18 18 19 19 20 21 21 20 19 19 19 18 18 17 18 18 18 17 17 16 16 15 13 12 11 11 10 10 9 9 9 9 9 9 8 8 9 9 9 10 10 10 10 10 10 10 9 9 9 9 10 10 11 11 12 12 12 13 13 13 13 13 14 13 13 13 12 10 9 9 10 9 7 7 9 10
16 17 19 21 22 22 21 20 19 19 19 20 20 20 21 21 20 19 20 19 18 18 18 18 18 18 18 17 16 15 14 12 11 11 10 9 8 8 8 8 8 7 7 7 7 7 7 7 7 7 7 6 6 6 6 6 6 6 6 6 7 7 8 8 9 10 11 12 13 13 13 14 14 15 15 15 14 13 13 12 11 10 10 10 11
16 17 18 20 21 21 21 21 20 20 20 20 20 20 20 20 19 19 20 18 18 19 18 18 18 17 17 16 15 14 12 11 11 10 9 8 8 7 7 7 6 6 5 4 4 4 3 3 3 3 3 3 3 3 4 4 4 5 5 5 5 5 6 6 7 7 8 9 10 12 13 13 14 15 16 17 18 18 17 15 14 15 14 12 12
17 17 18 19 21 22 22 22 21 21 21 21 20 20 20 19 19 19 20 19 19 19 18 17 17 16 15 14 13 13 12 11 10 9 9 8 7 7 6 6 5 4 3 3 2 2 2 1 1 1 2 2 2 3 3 4 4 5 5 5 6 5 6 6 6 6 7 7 8 9 11 12 14 15 16 18 19 20 19 18 17 17 17 15 14
18 19 19 20 21 22 23 23 22 22 22 22 21 20 19 19 20 20 19 19 19 18 17 17 16 16 15 14 13 12 11 11 10 9 9 8 7 7 6 5 5 4 3 3 2 2 2 2 2 2 2 2 2 3 3 4 4 4 5 5 6 6 6 6 6 6 7 7 7 8 9 10 12 14 16 18 19 20 20 20 20 19 19 18 16
19 21 21 21 22 23 24 24 23 23 23 22 21 20 20 20 20 20 19 19 18 18 17 16 16 15 15 14 13 13 12 11 10 9 8 8 7 7 6 5 5 4 3 3 3 2 2 2 2 3 3 3 3 4 4 4 4 4 4 4 5 5 5 6 6 6 7 7 7 8 9 9 10 13 15 17 18 19 20 20 21 21 21 21 20
20 22 22 23 24 24 25 24 24 24 24 23 22 21 21 20 20 19 19 19 18 18 17 17 16 16 15 15 14 13 12 11 10 9 8 8 7 6 6 5 5 4 3 3 3 3 3 3 3 3 3 3 3 4 4 4 5 5 5 5 4 5 5 5 5 6 7 7 8 8 9 10 10 11 13 15 17 18 19 19 19 20 21 21 20
21 23 23 24 25 26 26 26 26 26 25 25 24 23 22 21 20 20 19 19 19 18 18 17 17 17 16 15 14 13 12 11 10 9 8 7 7 6 6 5 4 4 4 4 3 3 3 3 3 3 2 2 3 3 4 4 5 5 5 6 6 6 5 5 5 6 6 7 8 8 9 10 11 12 13 14 15 15 16 17 17 17 18 19 20
22 24 25 26 26 27 28 27 28 28 28 27 26 24 23 23 21 21 21 20 20 19 19 19 18 18 18 17 15 14 12 11 10 10 9 8 7 7 6 5 5 4 4 4 3 3 3 3 2 2 2 2 3 3 4 4 5 5 6 6 6 7 7 6 6 6 7 7 8 8 10 11 11 12 13 13 14 14 14 14 14 15 15 16 18
24 25 26 27 27 28 29 29 29 30 30 29 28 26 25 24 23 22 22 22 21 21 20 20 20 20 19 18 16 15 13 12 11 11 10 9 8 8 7 6 6 5 5 4 4 3 3 2 2 3 3 4 5 5 6 6 7 7 7 7 7 7 7 7 7 7 7 8 8 9 10 11 12 12 13 13 13 13 12 12 12 12 13 13 14
26 27 27 28 29 29 30 31 31 31 32 31 30 28 27 26 25 24 24 24 23 23 22 22 22 21 21 19 18 16 14 14 13 12 11 10 10 9 8 7 7 6 5 5 4 4 3 3 3 4 4 5 6 6 7 8 8 9 9 9 9 9 9 8 8 8 8 8 9 9 10 11 12 13 13 13 13 13 12 12 11 11 12 12 13
28 27 27 29 30 30 31 31 32 32 33 32 31 30 29 28 27 26 26 26 25 24 24 23 23 22 22 21 19 17 16 15 14 13 13 12 11 10 9 8 7 6 6 5 4 4 4 4 4 5 5 6 6 7 8 8 9 10 10 10 10 10 10 10 10 9 9 9 9 9 10 11 12 12 13 13 13 13 13 13 13 12 12 13 13
27 27 28 30 31 31 31 31 32 33 34 34 33 32 31 30 29 28 28 28 27 26 25 25 24 24 24 22 20 19 18 17 16 15 14 13 12 11 10 9 8 7 6 5 5 5 5 5 5 6 6 6 7 7 8 9 9 10 11 11 11 11 11 11 11 11 10 10 9 10 10 11 11 12 13 13 13 13 13 13 14 14 14 14 14
27 28 29 30 30 31 31 31 32 34 34 35 34 34 33 32 31 30 30 30 29 28 27 27 26 26 26 24 22 21 20 19 18 16 15 14 13 12 11 10 9 8 7 6 6 5 5 5 6 6 7 7 7 8 8 9 10 11 11 12 12 12 13 13 12 12 12 11 10 10 10 10 11 12 12 13 13 14 14 14 14 15 15 14 14
29 30 30 29 30 31 32 32 33 34 35 35 35 35 35 35 33 32 32 32 31 30 29 29 28 28 28 26 25 23 22 21 19 18 16 15 14 13 12 11 10 8 7 7 6 6 6 6 6 7 7 7 7 8 9 10 11 11 12 12 13 13 13 13 13 13 13 12 11 10 10 10 11 11 12 13 13 14 14 14 15 15 15 15 15
30 31 30 30 31 32 33 33 33 34 35 36 37 37 37 36 35 34 34 34 33 32 31 31 30 30 30 28 27 26 24 22 21 19 18 17 15 14 13 12 11 10 9 8 8 7 7 7 7 8 8 8 8 9 10 10 11 12 12 13 13 13 13 13 13 14 13 13 12 11 10 10 11 11 12 13 13 14 15 15 15 15 14 14 15
30 31 31 31 32 32 33 34 34 35 35 36 37 38 38 38 37 37 36 35 35 34 33 32 32 32 31 30 29 27 26 24 22 21 19 18 17 15 14 14 12 11 11 10 9 9 8 8 8 9 9 9 9 10 11 11 12 13 13 13 13 13 14 14 14 14 13 13 12 12 11 10 11 11 12 13 13 14 15 16 16 15 15 15 15
32 31 31 31 31 32 33 35 36 36 35 36 38 38 39 40 39 39 38 38 37 35 34 34 34 33 33 32 31 29 28 25 24 22 20 19 18 17 16 15 14 13 12 11 10 9 9 9 9 9 9 10 10 11 11 12 13 13 14 14 13 14 14 14 14 14 14 14 13 12 11 11 11 11 12 13 13 14 15 16 16 15 15 15 15
32 32 32 31 32 32 33 35 36 37 37 37 38 39 40 41 41 41 40 39 39 37 36 36 35 34 34 33 32 31 29 27 25 23 22 20 19 18 17 17 16 15 14 12 11 10 10 10 10 10 10 11 11 11 12 13 13 14 14 14 13 13 13 14 14 14 14 14 13 13 12 11 11 12 12 13 13 14 15 15 15 15 14 14 14
32 33 32 32 33 33 33 35 36 37 38 38 39 39 40 41 41 42 42 41 40 39 38 37 36 35 34 34 33 32 30 28 27 25 23 22 21 20 19 19 18 16 15 14 12 11 11 11 11 11 11 11 12 12 13 13 14 14 14 14 14 13 13 14 14 14 14 14 13 13 12 12 12 12 13 13 13 13 13 13 14 14 14 13 13
33 32 31 33 34 33 34 35 36 37 38 39 39 40 40 41 42 42 42 42 42 41 40 39 38 36 35 35 34 34 32 30 28 27 25 23 22 21 21 20 19 18 16 15 13 12 12 12 12 11 12 12 12 13 13 14 14 15 15 14 14 14 14 14 14 14 14 14 13 13 13 13 13 12 12 12 12 12 12 12 12 12 12 12 11
33 33 34 34 33 33 35 35 36 38 39 39 40 40 41 41 42 43 43 44 44 43 42 41 39 38 37 36 35 35 34 32 30 28 27 25 24 23 23 21 20 19 17 16 15 14 13 13 13 12 13 13 13 14 14 14 15 15 15 15 15 14 14 14 14 14 14 14 14 14 14 14 13 12 12 11 11 11 11 11 11 10 10 10 10
34 35 36 34 33 34 35 36 37 38 39 40 41 41 41 41 42 43 43 44 45 45 44 42 41 39 38 37 36 36 35 34 32 30 29 27 26 25 24 23 21 20 19 17 16 16 15 15 14 14 14 14 15 15 15 15 15 15 15 15 15 15 15 14 15 15 14 14 14 14 14 14 13 12 11 10 10 10 10 10 10 10 9 10 10
35 36 36 35 35 35 35 37 37 38 39 40 41 41 41 41 42 43 44 45 46 46 45 43 42 41 40 39 38 37 36 35 34 32 31 30 29 27 26 24 23 21 20 19 18 18 17 17 16 15 15 16 16 15 15 14 14 15 15 15 15 15 15 14 15 15 15 14 14 14 14 13 13 12 11 10 10 9 9 10 9 9 9 10 10
37 37 36 36 37 37 36 37 37 38 39 40 41 42 42 42 43 44 44 45 46 47 46 45 43 43 42 40 39 38 37 37 36 34 33 32 31 29 27 26 25 23 22 22 21 20 19 18 18 17 17 17 16 15 15 14 14 15 15 15 15 15 15 15 15 15 15 14 14 14 13 12 12 11 11 10 10 10 10 10 9 9 9 9 10
41 39 38 38 37 37 37 37 37 37 38 39 41 42 44 44 44 44 44 45 46 47 47 46 45 44 44 42 40 39 38 38 38 37 35 34 33 30 29 27 26 25 25 24 23 22 21 20 19 18 18 17 16 16 15 15 15 15 15 15 15 15 15 15 15 15 14 14 13 12 12 12 11 10 10 10 10 10 10 11 10 10 10 10 10
43 41 40 39 37 37 37 36 36 37 38 40 41 42 44 45 46 45 46 46 47 48 48 47 47 46 45 43 41 40 39 39 39 38 37 36 35 32 31 29 28 27 27 26 25 24 23 22 21 20 19 18 17 16 16 15 15 15 15 16 15 15 14 14 14 14 13 12 11 11 11 11 10 9 9 9 9 9 10 10 10 11 11 11 11
42 41 39 38 37 36 36 36 37 38 38 39 41 43 44 46 47 47 47 48 48 50 50 49 48 47 46 44 42 41 40 40 40 40 40 39 37 34 33 31 30 30 29 28 27 26 25 24 22 21 20 19 18 17 16 15 15 15 15 15 15 14 14 13 13 13 11 10 10 10 11 11 10 9 9 8 8 8 9 9 10 10 11 11 11
40 38 37 35 35 34 35 36 37 39 39 40 43 44 45 47 48 48 49 50 50 51 51 50 49 48 47 45 44 43 41 41 41 42 41 40 38 36 35 33 32 32 31 30 29 28 26 24 23 22 21 20 19 18 17 16 15 15 14 14 14 14 14 13 13 12 10 9 9 9 10 10 10 8 8 8 8 8 8 9 9 9 9 10 10
37 35 35 34 33 32 34 35 37 38 40 42 43 44 46 47 49 49 49 49 50 51 51 51 50 49 48 47 46 45 44 43 43 43 43 42 40 37 36 35 35 33 32 31 29 28 26 25 24 23 22 21 20 19 17 16 15 14 13 12 13 13 13 12 12 11 10 11 10 7 7 8 8 7 7 7 7 7 7 8 8 8 8 8 8
33 31 30 30 30 30 31 33 34 37 39 41 42 44 45 46 47 46 45 46 48 49 50 50 50 50 49 49 48 47 46 45 44 43 43 43 41 39 38 37 36 34 33 32 31 29 28 27 26 25 23 22 21 20 19 17 15 14 13 12 12 12 12 12 12 11 11 12 11 9 9 9 8 6 6 7 7 7 7 7 7 7 7 7 7
30 28 26 26 27 28 30 31 32 35 37 39 41 43 45 46 46 44 42 44 46 47 49 49 49 50 50 50 50 49 47 46 45 44 44 44 42 40 39 38 37 36 35 34 33 32 31 30 28 26 25 23 22 21 20 19 17 15 13 11 10 10 12 12 10 8 9 11 13 15 15 14 12 8 7 7 7 7 7 7 7 7 6 6 6
30 28 26 25 26 27 28 30 31 33 35 37 40 42 43 44 44 44 43 44 45 46 48 50 51 51 51 51 51 50 49 47 46 45 44 44 43 41 40 39 38 37 37 36 35 34 33 32 30 28 27 25 24 23 22 20 19 16 12 10 9 10 11 9 6 6 8 11 13 13 13 13 13 10 9 9 9 8 7 7 7 6 6 5 5
30 28 26 25 26 26 27 29 30 32 34 36 39 41 42 43 44 44 45 46 46 46 49 51 53 53 53 53 52 51 49 48 47 47 46 44 44 42 41 40 40 39 38 38 37 35 34 33 31 30 28 27 26 25 23 22 20 18 15 13 11 9 8 7 7 8 11 11 11 10 9 9 11 10 10 11 11 9 8 7 7 6 5 4 3
27 25 23 23 24 24 26 27 29 31 33 36 38 40 42 43 44 45 46 47 48 48 48 49 51 52 52 52 50 49 49 50 49 48 47 45 44 43 42 42 41 41 40 39 38 37 36 34 33 31 29 28 28 27 26 24 22 20 19 17 15 12 11 11 11 11 11 11 12 11 9 8 9 10 10 10 10 10 8 8 7 5 3 2 2
22 20 19 19 20 21 23 25 27 29 32 34 36 38 41 42 43 44 45 45 46 46 45 45 46 47 48 48 49 49 50 51 51 49 48 47 45 44 43 43 42 41 40 40 40 39 37 36 34 33 31 31 31 29 28 26 24 22 20 18 16 15 15 15 14 12 11 12 13 12 11 11 10 10 10 10 9 9 8 8 7 4 2 1 1
20 17 18 18 19 20 21 23 25 27 29 32 35 36 38 40 41 42 43 44 44 43 42 42 43 44 45 46 47 48 49 50 50 50 49 48 47 45 44 44 43 42 42 42 41 40 38 37 36 35 34 33 33 31 30 29 26 23 21 19 17 16 16 16 16 15 14 13 14 13 13 12 10 10 11 10 9 9 8 8 7 4 2 2 2
20 16 16 17 19 19 20 22 23 26 28 31 33 34 36 37 39 40 42 42 43 43 43 42 43 43 44 45 46 47 48 49 49 50 50 49 48 47 46 45 44 44 43 43 42 40 40 39 38 37 36 35 34 33 32 30 28 25 23 21 19 17 16 16 17 17 16 15 15 14 12 10 11 11 11 10 10 9 8 8 6 5 3 3 4
23 17 15 16 19 20 20 22 24 25 27 29 31 31 33 35 36 38 40 41 42 43 43 43 43 43 44 45 46 46 46 47 48 50 50 50 49 48 47 46 45 45 44 43 43 42 41 41 40 39 37 36 35 34 33 30 28 26 25 23 21 19 18 17 18 18 18 17 16 16 14 11 12 12 10 10 11 10 9 8 7 6 4 4 5
30 20 18 17 18 20 21 22 24 25 26 27 28 28 30 32 33 35 36 38 40 42 42 43 43 44 44 45 45 45 45 46 47 48 49 49 50 49 48 48 47 46 45 44 44 43 43 42 41 40 39 37 36 35 33 31 30 28 27 26 23 21 20 18 18 18 18 18 18 18 17 13 12 11 9 9 11 11 10 8 7 7 6 5 6
Wind_Direction
194 194 201 200 197 192 185 183 184 191 190 191 191 190 188 186 186 190 190 180 172 174 174 171 174 171 172 172 178 176 173 173 166 166 166 170 170 173 178 181 177 164 166 157 153 153 124 123 111 66 61 59 35 43 64 72 72 68 67 52 41 41 48 55 52 50 46 48 50 54 55 58 66 64 50 35 31 30 35 43 58 72 71 65 57
193 191 199 200 200 197 193 189 189 193 193 195 197 198 195 194 192 194 193 184 178 179 176 174 179 176 175 175 183 179 174 178 174 172 166 165 164 167 173 180 185 183 180 172 171 170 162 163 173 158 139 158 159 71 82 58 34 27 48 43 28 24 27 35 38 40 38 39 42 51 55 60 66 61 45 21 21 23 27 41 53 61 66 66 58
190 191 195 199 202 200 198 193 194 196 197 200 201 204 203 205 203 202 200 191 186 185 179 177 183 182 178 178 188 188 183 185 181 180 178 175 173 174 173 178 189 187 181 183 187 186 190 182 187 187 186 194 189 184 191 314 345 350 6 17 11 10 5 4 8 17 21 27 34 46 53 58 61 58 53 35 24 19 10 23 44 47 48 56 58
188 192 193 197 201 201 200 196 195 193 197 201 202 206 205 209 209 209 207 197 194 190 183 182 187 187 186 186 190 193 191 192 189 187 190 191 186 183 177 180 187 180 175 186 192 189 195 189 193 199 204 212 206 213 239 281 304 310 316 328 327 326 319 321 329 342 353 3 22 40 47 52 56 56 52 40 27 22 12 360 11 28 26 30 41
186 192 194 195 199 200 200 200 199 193 195 199 198 203 205 210 212 210 207 199 196 193 189 189 191 191 193 191 191 193 194 197 199 198 201 204 199 197 198 197 188 180 176 180 191 192 197 196 201 207 211 216 216 242 277 288 297 298 298 301 300 293 283 285 294 307 320 329 348 18 38 48 55 56 44 30 15 10 7 4 353 352 355 355 12
187 192 196 195 197 197 198 201 202 198 197 198 199 203 206 210 211 210 206 199 194 194 194 193 194 196 197 196 196 198 201 205 209 213 214 217 218 216 218 214 208 202 193 194 203 206 209 211 221 222 214 215 237 276 290 293 294 293 292 290 291 288 280 278 282 290 300 309 315 331 353 20 27 27 37 18 354 350 341 347 351 347 341 324 325
192 192 197 198 197 196 196 198 201 200 200 202 204 205 205 205 204 204 205 201 195 194 197 198 199 202 203 204 207 211 215 218 223 226 226 231 233 233 230 228 232 231 222 224 229 231 232 235 241 237 236 256 275 286 289 290 291 290 288 286 286 282 277 273 275 280 287 294 297 303 312 327 338 321 9 353 319 324 320 320 328 335 335 326 317
192 193 197 198 199 198 195 196 197 197 200 202 204 205 205 205 204 202 204 203 199 197 201 205 207 208 211 214 219 225 229 233 237 239 239 240 242 243 240 240 246 246 243 244 246 250 252 252 255 258 268 278 283 285 286 288 288 287 287 285 283 280 276 272 270 273 277 280 282 285 289 294 303 300 297 297 293 289 293 300 301 304 310 313 312
192 194 196 198 201 200 196 196 195 195 199 199 200 203 205 208 208 207 208 210 210 210 212 216 217 218 221 225 230 237 241 243 246 247 246 247 247 247 247 249 253 255 253 251 251 252 253 254 258 263 269 275 278 281 283 286 286 286 287 285 283 280 277 273 270 269 271 272 273 274 277 279 281 285 280 277 284 282 277 286 293 293 292 293 295
196 196 197 199 200 202 199 198 197 198 200 199 198 201 205 207 209 214 217 219 222 224 225 227 228 230 233 237 240 244 247 248 248 247 247 248 249 249 250 252 254 258 256 253 253 252 252 254 257 260 264 269 273 278 281 285 287 287 287 286 284 282 279 276 272 269 268 267 268 268 269 271 271 272 269 268 273 277 274 280 290 293 290 283 281
202 201 201 200 201 202 200 200 199 201 204 202 201 204 207 210 213 221 225 225 227 230 231 233 236 238 240 241 242 245 247 248 248 248 249 249 249 249 249 250 252 255 255 255 254 253 253 255 258 261 264 268 272 276 279 283 286 287 287 287 285 283 281 278 275 271 269 267 266 265 264 264 264 264 261 261 264 269 270 273 281 292 296 284 278
208 206 205 203 203 204 202 201 201 202 206 207 208 209 213 216 221 226 228 228 229 232 233 233 235 236 237 237 238 242 246 247 248 249 250 249 248 248 247 248 248 251 254 256 257 256 256 258 262 266 269 272 275 278 282 285 287 290 291 290 291 289 287 283 279 274 272 268 266 264 262 261 258 257 255 252 251 254 256 257 262 271 277 273 269
215 211 209 209 207 208 206 205 204 204 207 210 211 213 217 221 224 227 229 230 230 231 230 229 228 229 231 233 237 241 243 245 245 245 245 245 244 245 245 246 248 249 251 253 257 259 261 264 267 271 275 278 283 288 292 296 299 301 302 302 303 301 299 295 289 283 277 272 267 264 260 259 255 252 249 247 244 244 246 248 248 247 248 252 255
219 216 214 215 213 212 210 209 210 209 211 214 214 214 217 221 224 226 230 231 228 228 228 226 226 227 229 230 233 235 237 237 237 237 237 237 237 239 240 243 245 245 243 241 243 246 252 257 261 268 277 285 293 301 304 307 310 310 310 310 310 309 308 306 303 297 290 282 274 268 262 258 254 250 248 247 245 244 247 248 248 247 247 249 251
219 220 219 220 219 217 214 214 213 213 216 217 217 215 217 220 223 226 229 229 227 227 226 225 224 225 226 225 226 225 226 225 226 226 225 227 227 229 231 233 233 233 232 230 226 222 222 223 231 245 260 276 287 296 301 304 307 309 310 310 309 308 306 305 304 302 298 294 287 278 268 260 255 251 249 249 250 250 249 250 251 251 253 255 255
216 219 222 223 223 222 220 219 217 217 219 220 220 219 219 220 222 224 225 226 225 225 224 223 222 222 220 218 217 216 215 214 215 215 215 217 217 219 219 219 218 218 220 222 227 232 240 248 260 271 277 286 291 297 298 301 302 303 302 303 303 302 303 301 298 296 294 293 291 287 279 267 257 253 251 250 253 255 253 251 252 255 257 259 260
215 218 221 222 224 225 225 225 222 222 222 222 223 223 222 221 222 224 224 224 223 224 223 222 221 219 216 213 211 209 208 208 210 211 212 213 213 214 213 213 213 215 218 219 228 236 252 264 277 287 294 300 303 308 308 307 305 303 300 295 295 295 296 296 294 293 290 288 287 286 284 277 266 257 254 252 254 257 257 254 253 255 258 260 264
215 219 220 222 223 225 227 227 226 226 226 224 224 225 225 224 225 225 224 225 224 224 223 222 220 216 213 210 207 206 207 208 210 213 214 216 216 216 216 216 218 219 220 221 229 235 246 256 268 279 286 297 303 312 314 317 317 314 314 309 305 300 295 292 289 287 284 282 280 279 279 279 275 268 262 259 257 258 261 261 259 259 259 261 265
216 220 221 222 222 225 227 228 229 228 228 227 227 227 227 227 227 227 226 226 225 224 223 221 217 214 211 208 206 206 209 211 213 216 217 219 219 222 224 223 225 226 226 226 231 236 239 245 250 261 272 291 303 317 321 325 326 327 329 328 326 321 314 306 296 288 282 278 274 273 272 274 274 274 271 269 267 266 266 268 268 267 265 264 265
218 220 220 223 222 223 226 228 229 229 229 229 230 229 229 229 228 229 228 227 226 224 222 219 216 213 209 206 207 209 211 213 213 215 215 216 217 219 223 222 226 224 226 230 233 241 244 252 261 276 296 316 325 334 339 342 343 343 342 340 337 332 328 320 312 301 290 282 276 272 270 270 271 272 273 273 274 275 275 276 277 276 273 270 267
222 221 221 223 223 224 225 226 228 228 229 229 230 230 230 229 229 229 228 227 226 224 222 218 215 212 208 207 208 210 211 212 212 213 213 213 214 215 219 218 220 221 223 230 233 242 251 268 288 307 322 333 341 346 350 353 353 353 350 348 345 340 335 329 322 312 299 290 280 274 270 268 268 269 270 272 274 276 278 278 280 281 280 278 274
227 225 223 223 224 225 225 226 227 228 229 229 229 229 229 229 229 229 228 228 226 225 223 219 216 212 208 208 209 210 210 212 212 213 214 213 215 216 218 218 218 222 226 232 239 249 263 280 299 314 327 336 342 347 350 354 354 353 352 349 347 344 341 335 329 320 309 297 287 279 273 269 267 267 268 269 270 272 274 274 275 277 278 279 279
233 232 230 227 225 226 226 227 227 227 228 228 229 228 229 229 229 228 228 228 227 226 224 220 217 212 210 210 210 211 211 212 213 213 214 213 215 216 217 219 222 226 232 240 250 261 276 290 304 315 324 331 337 344 348 350 350 349 349 348 347 346 343 340 335 328 319 307 297 286 278 272 270 268 268 268 268 269 269 270 270 269 269 270 273
243 241 236 231 228 227 227 227 228 228 228 228 228 228 229 229 228 228 228 229 229 227 225 221 217 213 213 213 212 212 213 213 214 214 214 214 216 217 217 219 223 227 234 242 252 264 278 289 301 310 316 323 330 337 341 342 344 344 344 344 344 343 343 341 338 333 327 317 306 295 285 278 272 270 269 268 267 267 266 267 266 265 265 266 267
250 245 241 237 234 231 229 228 228 228 229 229 229 229 229 229 228 228 228 228 230 229 225 222 218 216 215 215 214 214 215 215 216 216 215 216 216 217 219 220 224 228 235 243 254 266 277 288 297 304 310 317 323 329 333 336 338 339 339 340 340 340 340 339 338 334 329 323 313 303 293 284 277 272 269 267 265 264 263 263 263 263 265 266 266
248 246 244 243 239 235 233 230 229 229 229 230 230 230 230 230 230 229 228 228 229 229 226 223 220 218 217 217 217 217 218 217 218 218 217 217 218 218 220 223 227 231 239 248 258 267 277 286 294 300 305 311 317 322 326 330 332 333 334 334 334 336 337 337 337 334 330 324 316 307 298 289 281 275 270 266 263 261 259 258 259 260 262 264 265
253 251 248 244 242 239 237 234 232 231 230 230 230 230 230 231 231 230 230 230 230 229 227 225 222 221 220 219 220 221 221 220 219 219 219 219 220 221 222 225 228 233 239 247 256 264 275 283 292 298 302 307 311 317 322 326 327 328 329 329 330 332 334 335 335 332 328 323 316 308 299 291 283 277 271 266 261 258 256 254 254 255 257 259 261
258 255 251 247 245 241 240 238 236 234 232 232 231 230 230 231 231 231 231 231 231 231 229 227 224 223 222 221 222 223 223 222 221 221 221 221 222 222 221 225 226 230 236 242 252 262 273 283 291 296 300 303 307 313 318 320 322 324 325 326 328 329 331 332 333 331 327 323 316 308 299 292 285 279 271 266 261 257 254 251 250 250 251 253 255
257 256 253 250 248 243 241 240 239 236 234 233 233 232 232 231 231 231 231 231 232 232 231 229 226 225 223 223 223 224 224 223 223 223 223 222 223 223 222 224 227 230 236 243 253 263 273 282 289 293 295 298 302 307 310 314 317 318 320 321 323 326 329 330 331 330 327 322 315 307 299 291 284 278 273 267 263 258 255 252 248 247 246 248 251
260 258 255 252 250 246 242 241 240 239 237 235 235 234 233 232 232 232 232 232 232 232 231 230 229 227 225 225 225 225 226 225 224 224 225 225 225 225 225 225 228 232 238 245 252 261 271 278 284 288 290 294 297 300 304 308 310 312 314 315 318 321 324 327 329 328 326 320 313 304 296 289 282 276 272 268 264 261 258 256 251 249 246 245 248
262 259 257 254 251 248 245 243 241 240 239 238 237 236 235 235 234 233 232 232 232 232 232 232 231 230 228 226 226 226 226 225 225 226 226 227 227 227 228 228 231 234 238 244 250 257 265 271 277 281 285 289 292 295 299 303 306 308 309 312 315 319 322 326 328 328 325 319 312 303 295 287 280 273 270 267 265 262 261 260 257 255 251 249 252
265 264 262 258 254 252 249 246 243 241 240 239 238 238 238 237 236 234 234 233 232 232 232 232 232 231 229 228 228 228 227 227 225 226 226 228 229 229 230 231 233 236 239 243 248 253 259 265 270 274 278 281 286 289 293 298 302 305 307 311 314 318 322 325 327 328 325 319 311 303 295 287 280 273 268 265 262 261 261 260 259 260 260 261 261
272 270 265 261 259 255 252 250 246 243 242 241 240 239 239 238 237 236 235 234 232 232 232 233 233 232 230 229 229 229 228 229 227 227 227 228 230 230 231 232 234 235 237 241 245 251 255 259 263 266 270 274 279 284 289 294 299 303 306 310 312 316 319 323 326 327 324 317 310 303 295 288 282 274 267 262 259 258 257 257 258 260 262 263 260
277 271 266 264 262 258 254 252 248 246 244 243 241 240 239 238 238 238 236 235 234 233 233 233 233 232 231 230 229 229 229 229 229 228 227 228 229 230 231 232 234 235 236 241 244 248 252 255 258 261 265 270 275 279 285 291 297 302 306 309 311 314 316 320 322 324 321 314 308 300 293 286 280 273 266 260 258 256 256 256 257 260 260 258 255
278 273 270 268 264 260 256 253 251 249 247 245 244 242 241 239 239 238 236 236 235 234 234 233 233 232 231 230 230 230 230 229 229 229 229 229 230 231 232 232 233 235 236 240 242 245 249 251 254 257 262 267 272 278 283 290 297 301 305 308 310 312 313 317 319 321 318 312 305 296 288 281 274 269 265 262 262 259 258 258 257 259 258 256 252
279 279 277 271 265 262 258 255 252 250 249 247 246 244 243 241 239 239 237 237 236 235 235 234 234 233 232 230 230 230 230 230 229 229 229 230 232 232 232 232 233 234 236 238 241 243 247 249 252 255 259 263 268 275 282 290 297 301 305 307 308 310 311 314 316 317 316 311 303 292 281 272 265 263 263 264 265 264 263 262 259 258 256 255 253
279 280 279 274 269 265 260 257 255 252 250 248 246 245 244 242 240 239 238 237 236 236 235 234 233 233 232 231 230 230 230 230 229 230 230 231 232 232 231 231 232 233 235 237 239 241 244 247 250 252 255 260 265 272 279 287 294 300 305 307 308 308 309 312 314 315 314 308 297 286 273 262 259 261 266 268 268 267 267 266 264 262 260 260 260
276 277 277 275 272 267 261 259 258 254 251 249 248 246 244 243 241 239 238 237 236 236 235 234 233 233 233 232 230 230 230 230 229 230 230 230 231 231 230 230 230 231 233 235 237 239 241 243 247 250 252 256 262 268 275 283 290 297 303 306 307 307 307 309 310 311 308 298 284 271 259 254 260 268 272 272 271 270 268 268 268 266 266 266 269
276 276 275 274 270 266 263 261 258 254 251 248 247 245 244 242 240 239 237 236 235 235 234 233 232 233 233 233 232 231 230 230 230 230 230 230 230 229 229 229 229 230 232 233 235 237 240 242 245 247 250 254 260 266 272 279 286 293 300 304 305 305 304 305 306 305 298 281 265 253 249 254 265 271 272 271 271 273 273 273 273 273 272 272 274
277 275 273 270 267 265 262 260 256 253 248 245 243 242 241 240 239 237 236 235 234 233 233 232 232 233 233 233 233 231 231 231 230 230 230 230 230 230 229 228 229 230 231 234 236 239 241 243 245 246 249 252 257 262 267 274 281 289 297 301 303 302 300 300 300 297 286 264 248 245 251 257 263 266 268 272 274 277 278 279 279 279 280 280 282
279 275 271 267 265 263 261 259 256 252 248 243 241 239 239 238 237 236 235 235 234 233 233 232 231 232 232 233 233 232 231 231 230 230 230 230 230 229 229 229 229 230 232 235 237 239 239 240 242 243 246 251 255 259 263 269 276 284 293 299 299 296 293 292 294 289 272 251 240 244 258 254 253 263 269 273 275 276 279 280 280 279 280 284 286
283 279 274 270 266 261 259 258 255 252 249 246 243 241 241 240 240 240 239 237 236 235 234 233 231 231 231 232 232 231 231 231 230 230 230 231 230 229 229 229 230 231 232 234 234 235 236 238 240 242 245 249 252 256 260 265 270 278 288 295 295 290 286 286 286 278 258 244 240 247 268 261 250 267 279 275 274 274 276 275 273 272 272 275 277
290 285 278 271 265 259 256 253 251 250 249 248 246 244 243 243 243 243 241 239 238 237 236 235 233 231 231 231 231 231 231 231 230 230 231 231 230 230 230 231 231 233 233 233 233 234 235 238 241 243 245 247 250 254 258 262 265 273 283 289 287 283 285 285 276 257 242 247 252 259 271 261 247 268 286 281 278 274 274 271 269 272 273 273 273
291 287 280 273 267 264 259 253 249 248 247 247 247 246 245 243 242 241 240 239 238 237 235 234 232 231 231 231 231 231 230 231 230 231 231 231 231 230 230 232 232 233 234 235 235 236 238 240 241 242 243 245 248 251 255 258 262 267 273 277 280 281 282 275 249 238 256 266 265 269 274 254 243 267 284 284 286 280 275 275 275 280 283 283 281
293 291 286 280 275 272 265 258 253 249 247 248 247 246 244 241 239 237 235 235 235 235 233 232 230 229 230 230 231 231 231 231 231 231 231 231 231 230 230 232 233 234 234 235 236 238 240 241 241 242 243 246 248 249 251 254 258 262 263 264 270 269 259 251 250 263 272 270 263 270 277 251 245 267 280 282 285 284 283 284 285 289 287 288 290
300 299 292 283 278 273 267 261 256 253 250 248 247 246 244 242 239 236 235 234 233 233 233 232 231 230 230 230 231 232 232 231 231 230 231 230 230 230 230 231 232 233 234 235 236 237 238 239 240 240 242 243 245 246 248 251 253 256 259 261 264 263 258 257 261 267 270 268 269 273 272 259 258 271 280 282 280 280 283 283 285 290 285 286 298
307 299 286 279 273 268 264 260 256 254 253 250 249 247 246 243 242 240 240 239 238 239 237 235 234 234 233 232 231 231 231 232 231 231 231 231 230 230 231 232 233 234 234 235 235 236 237 238 239 239 240 241 242 244 247 249 249 250 254 258 262 264 263 262 260 260 263 266 271 274 272 272 271 273 282 286 279 277 279 282 287 290 284 295 330
316 298 282 276 272 267 262 258 256 254 253 251 249 248 247 246 244 243 242 242 243 243 242 239 237 235 234 234 233 232 232 232 232 232 232 231 231 231 231 232 232 233 234 234 235 236 236 236 237 236 237 238 241 244 246 247 247 248 250 253 258 260 261 262 262 261 260 263 267 269 272 276 277 279 288 291 285 282 283 287 294 299 310 342 4
324 306 290 277 270 266 259 255 252 251 250 249 248 248 248 247 246 245 243 243 243 243 242 241 239 236 234 233 234 234 233 233 233 233 232 232 232 232 232 232 233 233 234 234 235 235 235 236 236 237 237 238 240 242 244 247 248 249 250 251 252 254 256 258 260 262 263 265 268 268 269 273 279 287 294 296 292 291 292 294 302 312 329 353 1
336 310 291 277 268 262 256 251 248 248 249 249 248 247 247 246 246 245 244 244 242 241 241 240 239 238 236 234 234 234 234 234 234 234 233 233 233 233 233 234 234 234 235 235 235 234 235 236 237 238 239 240 241 242 244 246 247 248 250 251 251 251 252 254 257 261 263 268 273 275 277 279 284 290 294 296 295 296 299 299 302 309 322 343 352
351 324 291 277 269 263 256 253 251 250 250 249 248 248 247 246 245 245 244 244 243 242 242 240 239 238 237 236 235 236 236 235 235 235 235 234 234 234 235 235 235 235 235 235 235 235 236 236 237 237 238 239 240 242 243 244 245 246 248 251 254 255 255 257 258 259 261 266 272 278 282 285 288 291 290 292 292 295 300 297 295 303 315 335 347